Location: Arrien
(43.3167°N, 0.1500°W)
Time: 23:03:02
(UTC+00:00)

USA 215 - Pass Details

Date: 15 October 2021
Orbit: 1099 x 1109 km, 123.0° (Epoch: 20 November)

Event Time Altitude Azimuth Distance (km) Brightness Sun altitude
Exits shadow 20:26:44 31° 11° (NNE) 1,842 4.4 -34.7°
Drops below altitude 10° 20:32:07 10° 316° (NW) 2,966 6.2 -35.6°
Sets 20:34:54 0° 306° (NW) 3,926 7.1 -36.0°
